Regional Weather Roundup
Issued by NWS

Home | Current Version | Previous Version | Graphics & Text | Print | Product List | Glossary On
Versions: 1 2 3 4 5 6 7 8 9 10 11 12 13 14 15 16 17 18 19 20 21 22 23 24 25 26 27 28 29 30 31 32 33 34 35 36 37 38 39 40 41 42 43 44 45 46 47 48 49 50
834
ASUS43 KDTX 280101
RWRMI
MICHIGAN HOURLY REGIONAL WEATHER ROUNDUP
NATIONAL WEATHER SERVICE DETROIT/PONTIAC MI
900 PM EDT FRI MAY 27 2016

NOTE: "FAIR" INDICATES FEW OR NO CLOUDS BELOW 12,000 FEET WITH NO
SIGNIFICANT WEATHER AND/OR OBSTRUCTION TO VISIBILITY.

MIZ047>049-052>055-059>063-066>070-074>076-081>083-280200-
SOUTHEAST LOWER MICHIGAN

CITY           SKY/WX    TMP DP  RH WIND       PRES   REMARKS
ADRIAN         PTCLDY    80  63  55 SE9       29.94R
ALMA           CLOUDY    75  66  73 CALM      29.92S
ANN ARBOR      PTCLDY    77  66  68 SE8       29.94S
BAD AXE        CLOUDY    74  64  71 SE5       29.95S
CARO           PTCLDY    74  67  79 CALM      29.94S
DETROIT CITY   PTCLDY    80  63  55 SE6       29.95S
DETROIT        CLOUDY    79  63  57 SE6       29.95S
FLINT          CLOUDY    81  61  50 CALM      29.94S
GROSSE ILE     CLOUDY    70  64  83 CALM      29.94S
HILLSDALE      MOCLDY    78  58  49 E3        29.95R
HOWELL         CLOUDY    76  63  63 CALM      29.95S HAZE

CITY           SKY/WX    TMP DP  RH WIND       PRES   REMARKS
JACKSON        CLOUDY    77  63  61 SE5       29.94R
LAMBERTVILLE   PTCLDY    76  64  66 E5        29.95S
LANSING        MOCLDY    79  62  56 SE8       29.93S
LAPEER         FAIR      76  61  60 S3        29.96S
MASON          PTCLDY    77  64  63 E6        29.94S
MONROE         MOCLDY    73  65  78 E13       29.94S
MT. CLEMENS    MOCLDY    73  67  81 CALM      29.94S
PONTIAC        CLOUDY    79  64  60 SE5       29.95S
PORT HOPE        N/A     63  61  93 SE9       29.94S
PORT HURON     PTCLDY    72  64  78 CALM      29.96S
TRI CITIES     CLOUDY    77  67  71 SE6       29.93S
MIDLAND        FAIR      72  69  90 E3        29.92S
TROY           CLOUDY    82  63  53 CALM      29.97S
SAGINAW HB     PTCLDY    79  63  57 S6        29.93S
$$
MIZ043>046-050>051-056>058-064>065-071>073-077>080-280200-
SOUTHWEST LOWER MICHIGAN

CITY           SKY/WX    TMP DP  RH WIND       PRES   REMARKS
BATTLE CREEK   CLOUDY    78  63  59 SE7       29.92R
BENTON HARBOR  CLOUDY    71  67  87 SE5       29.88F
BIG RAPIDS     MOCLDY    72  70  95 CALM      29.91S
COLDWATER      PTCLDY    77  63  61 CALM      29.92S
FREMONT        RAIN      73  73 100 SE5       29.91R
HOLLAND        CLOUDY    71  65  81 SW6       29.91R
GRAND RAPIDS   LGT RAIN  78  65  63 SE7       29.90R
IONIA          CLOUDY    75  63  64 E7        29.90S
KALAMAZOO      MOCLDY    79  60  52 S6        29.90S
LUDINGTON      LGT RAIN  72  69  90 E5        29.88F
MARSHALL       CLOUDY    78  63  60 CALM      29.92R
MOUNT PLEASANT CLOUDY    72  69  91 E3        29.92S
MUSKEGON       CLOUDY    71  66  84 SE5       29.89R
SOUTH HAVEN    CLOUDY    71  67  88 S3        29.89F
$$
MIZ016>042-280200-
NORTHERN LOWER MICHIGAN

CITY           SKY/WX    TMP DP  RH WIND       PRES   REMARKS
ALPENA         CLOUDY    62  58  86 VRB6      29.95S
BEAVER ISLAND  LGT RAIN  64  61  88 SE5       29.91F
BELLAIRE       CLOUDY    67  65  93 E3        29.91F
CADILLAC       CLOUDY    70  66  85 CALM      29.93S
CHARLEVOIX     CLOUDY    66  66  99 E6        29.93F
FRANKFORT      LGT RAIN  70  66  87 CALM      29.88S
GAYLORD        MOCLDY    69  63  81 CALM      29.95S
GRAYLING       PTCLDY    73  66  79 CALM      29.95S
HARBOR SPRINGS LGT RAIN  67  65  94 E3        29.92F
HOUGHTON LAKE  CLOUDY    73  64  73 SE5       29.94S
MANISTEE       MOCLDY    72  64  78 CALM      29.90R
OSCODA         CLOUDY    62  58  87 E5        29.95R
PELLSTON       LGT RAIN  69  66  90 NE6       29.93F
ROGERS CITY    PTCLDY    70  59  66 SE5       29.94S
TRAVERSE CITY  CLOUDY    68  65  90 NE3       29.89R
$$
MIZ007>008-015-280200-
EASTERN UPPER MICHIGAN

CITY           SKY/WX    TMP DP  RH WIND       PRES   REMARKS
KINROSS          N/A     68  55  64 SE9       29.95R
MACKINAC ISLAN CLOUDY    54  54 100 S5        29.95S
NEWBERRY       CLOUDY    67  57  72 SE13      29.92F
S. S. MARIE    CLOUDY    69  58  67 E7        29.94S
MUNISING         N/A     62  61  96 NE5       29.88R
$$
MIZ004>006-011>014-085-280200-
CENTRAL UPPER MICHIGAN

CITY           SKY/WX    TMP DP  RH WIND       PRES   REMARKS
MANISTIQUE     CLOUDY    60  58  90 E6        29.91R
ESCANABA         N/A     64  61  88 E7        29.87F
MENOMINEE      CLOUDY    61  59  94 SE10      29.87S
SAWYER-GWINN   LGT RAIN  63  61  94 S3        29.90R
$$
MIZ001>003-009>011-084-280200-
WESTERN UPPER MICHIGAN

CITY           SKY/WX    TMP DP  RH WIND       PRES   REMARKS
IRON MOUNTAIN  CLOUDY    65  62  90 E9        29.84F
HOUGHTON       LGT RAIN  57  55  93 E10       29.86F VSB 1/2
COPPER HARBOR    N/A     48  45  89 CALM      29.87F
IRONWOOD       CLOUDY    57  55  94 NW3       29.80S
$$

ABBREVIATIONS USED IN REMARKS
   TC - TEMPERATURE IN CELSIUS
  WCI - WIND CHILL INDEX
   HX - HEAT INDEX
  VSB - VISIBILITY





USA.gov is the U.S. government's official web portal to all federal, state and local government web resources and services.